Weather History for Fort Benning, GA

Change the Weather History Date:

Wednesday, October 5, 2011

  Actual Average Record
Temperature  
Mean Temperature 66 °F -  
Max Temperature 85 °F 77 °F 89 °F (2013)
Min Temperature 48 °F 56 °F 39 °F (2014)
Cooling Degree Days 1    
Growing Degree Days 16 (Base 50)    
Moisture  
Dew Point 49 °F    
Average Humidity 91    
Maximum Humidity 100    
Minimum Humidity 28    
Precipitation  
Precipitation 0.00 in - - ()
Sea Level Pressure  
Sea Level Pressure 30.20 in    
Wind  
Wind Speed 0 mph (North)    
Max Wind Speed 7 mph    
Max Gust Speed -    
Visibility 3 miles    
Events Fog    
Averages and records for this station are not official NWS values.
T = Trace of Precipitation, MM = Missing Value Source: NWS Daily Summary

Daily Weather History Graph

Daily Weather History Graph

Search for Another Location

Airport:

Trip Planner

Search our weather history database for the weather conditions in past years. The results will help you decide how hot, cold, wet, or windy it might be!

Date:

Astronomy

Oct. 05, 2011 Rise Set
Actual Time 7:36 AM EDT 7:19 PM EDT
Civil Twilight 7:11 AM EDT 7:44 PM EDT
Nautical Twilight 6:43 AM EDT 8:12 PM EDT
Astronomical Twilight 6:15 AM EDT 8:41 PM EDT
Moon 3:41 PM EDT (10/5) 1:42 AM EDT (10/5)
Length of Visible Light 12h 32m
Length of Day
11h 43m
Waxing Gibbous, 66% of the Moon is Illuminated
Oct 5
Waxing Gibbous
Oct 11
Full
Oct 19
Last Quarter
Oct 26
New
Nov 2
First Quarter

Hourly Weather History & Observations

Time (EDT) Temp. Dew Point Humidity Pressure Visibility Wind Dir Wind Speed Gust Speed Precip Events Conditions
12:55 AM 51.8 °F 49.6 °F 92% 30.19 in 10.0 mi Calm Calm - N/A   Clear
1:55 AM 51.6 °F 50.4 °F 95% 30.19 in 5.0 mi Calm Calm - N/A   Clear
2:55 AM 50.2 °F 48.7 °F 95% 30.19 in 10.0 mi Calm Calm - N/A   Clear
3:23 AM 50.0 °F 50.0 °F 100% 30.19 in 2.0 mi Calm Calm - N/A   Clear
3:24 AM 50.0 °F 50.0 °F 100% 30.19 in 1.8 mi Calm Calm - N/A   Clear
3:25 AM 50.0 °F 50.0 °F 100% 30.19 in 1.5 mi Calm Calm - N/A   Clear
3:31 AM 50.0 °F 48.2 °F 94% 30.19 in 1.8 mi ESE 3.5 mph - N/A   Clear
3:32 AM 50.0 °F 48.2 °F 94% 30.19 in 2.0 mi ESE 3.5 mph - N/A   Clear
3:33 AM 50.0 °F 48.2 °F 94% 30.19 in 3.0 mi Calm Calm - N/A   Clear
3:47 AM 50.0 °F 50.0 °F 100% 30.19 in 2.5 mi Calm Calm - N/A   Clear
3:49 AM 50.0 °F 50.0 °F 100% 30.19 in 2.0 mi Calm Calm - N/A   Clear
3:51 AM 50.0 °F 50.0 °F 100% 30.19 in 1.8 mi Calm Calm - N/A   Clear
3:55 AM 50.2 °F 49.3 °F 97% 30.19 in 1.5 mi Calm Calm - N/A   Clear
3:57 AM 50.0 °F 50.0 °F 100% 30.19 in 1.2 mi Calm Calm - N/A   Clear
4:03 AM 50.0 °F 50.0 °F 100% 30.19 in 1.2 mi Calm Calm - N/A   Clear
4:04 AM 50.0 °F 50.0 °F 100% 30.19 in 1.5 mi Calm Calm - N/A   Clear
4:05 AM 50.0 °F 50.0 °F 100% 30.19 in 1.5 mi Calm Calm - N/A   Clear
4:06 AM 50.0 °F 50.0 °F 100% 30.19 in 1.8 mi Calm Calm - N/A   Clear
4:07 AM 50.0 °F 50.0 °F 100% 30.19 in 2.5 mi Calm Calm - N/A   Clear
4:08 AM 50.0 °F 50.0 °F 100% 30.19 in 4.0 mi Calm Calm - N/A   Clear
4:23 AM 50.0 °F 50.0 °F 100% 30.19 in 2.0 mi Calm Calm - N/A   Clear
4:24 AM 50.0 °F 50.0 °F 100% 30.19 in 1.5 mi Calm Calm - N/A   Clear
4:25 AM 50.0 °F 50.0 °F 100% 30.19 in 1.2 mi Calm Calm - N/A   Clear
4:26 AM 50.0 °F 50.0 °F 100% 30.19 in 1.0 mi Calm Calm - N/A   Clear
4:28 AM 50.0 °F 48.2 °F 94% 30.19 in 0.8 mi Calm Calm - N/A   Clear
4:29 AM 50.0 °F 48.2 °F 94% 30.19 in 0.8 mi Calm Calm - N/A   Clear
4:30 AM 50.0 °F 48.2 °F 94% 30.19 in 0.5 mi Calm Calm - N/A Fog Fog
4:31 AM 50.0 °F 48.2 °F 94% 30.19 in 0.5 mi Calm Calm - N/A Fog Fog
4:32 AM 50.0 °F 48.2 °F 94% 30.19 in 0.5 mi Calm Calm - N/A Fog Fog
4:34 AM 48.2 °F 48.2 °F 100% 30.19 in 0.8 mi Calm Calm - N/A   Clear
4:38 AM 50.0 °F 48.2 °F 94% 30.19 in 0.8 mi Calm Calm - N/A   Clear
4:39 AM 50.0 °F 48.2 °F 94% 30.19 in 1.0 mi Calm Calm - N/A   Clear
4:40 AM 50.0 °F 48.2 °F 94% 30.19 in 1.0 mi Calm Calm - N/A   Clear
4:41 AM 50.0 °F 48.2 °F 94% 30.19 in 1.2 mi Calm Calm - N/A   Clear
4:42 AM 50.0 °F 48.2 °F 94% 30.19 in 1.5 mi Calm Calm - N/A   Clear
4:44 AM 50.0 °F 48.2 °F 94% 30.19 in 2.0 mi Calm Calm - N/A   Clear
4:45 AM 50.0 °F 48.2 °F 94% 30.19 in 3.0 mi Calm Calm - N/A   Clear
4:55 AM 48.9 °F 48.2 °F 97% 30.19 in 6.0 mi Calm Calm - N/A   Clear
4:57 AM 48.2 °F 48.2 °F 100% 30.19 in 2.0 mi Calm Calm - N/A   Clear
4:58 AM 48.2 °F 48.2 °F 100% 30.19 in 1.2 mi Calm Calm - N/A   Clear
4:59 AM 48.2 °F 48.2 °F 100% 30.19 in 1.0 mi Calm Calm - N/A   Clear
5:00 AM 50.0 °F 48.2 °F 94% 30.19 in 0.8 mi Calm Calm - N/A   Clear
5:02 AM 50.0 °F 48.2 °F 94% 30.19 in 0.5 mi Calm Calm - N/A Fog Fog
5:03 AM 50.0 °F 48.2 °F 94% 30.19 in 0.5 mi Calm Calm - N/A Fog Fog
5:04 AM 50.0 °F 48.2 °F 94% 30.19 in 0.5 mi Calm Calm - N/A Fog Fog
5:08 AM 48.2 °F 48.2 °F 100% 30.19 in 0.8 mi Calm Calm - N/A   Clear
5:11 AM 48.2 °F 48.2 °F 100% 30.19 in 1.0 mi Calm Calm - N/A   Clear
5:18 AM 48.2 °F 48.2 °F 100% 30.19 in 0.8 mi Calm Calm - N/A   Clear
5:25 AM 48.2 °F 48.2 °F 100% 30.19 in 0.8 mi Calm Calm - N/A   Clear
5:28 AM 48.2 °F 48.2 °F 100% 30.19 in 0.5 mi Calm Calm - N/A Fog Fog
5:30 AM 48.2 °F 48.2 °F 100% 30.19 in 0.5 mi Calm Calm - N/A Fog Fog
5:43 AM 48.2 °F 48.2 °F 100% 30.19 in 0.5 mi Calm Calm - N/A Fog Fog
5:44 AM 48.2 °F 48.2 °F 100% 30.19 in 0.8 mi Calm Calm - N/A   Clear
5:47 AM 48.2 °F 48.2 °F 100% 30.19 in 1.0 mi Calm Calm - N/A   Clear
5:55 AM 48.7 °F 48.2 °F 98% 30.20 in 0.8 mi Calm Calm - N/A   Clear
5:56 AM 48.2 °F 48.2 °F 100% 30.20 in 0.8 mi Calm Calm - N/A   Clear
5:59 AM 48.2 °F 48.2 °F 100% 30.20 in 0.8 mi Calm Calm - N/A   Clear
6:00 AM 48.2 °F 48.2 °F 100% 30.20 in 1.0 mi Calm Calm - N/A   Clear
6:01 AM 48.2 °F 48.2 °F 100% 30.20 in 1.0 mi Calm Calm - N/A   Clear
6:02 AM 48.2 °F 48.2 °F 100% 30.20 in 1.2 mi Calm Calm - N/A   Clear
6:03 AM 48.2 °F 48.2 °F 100% 30.20 in 1.5 mi Calm Calm - N/A   Clear
6:05 AM 48.2 °F 48.2 °F 100% 30.20 in 2.0 mi Calm Calm - N/A   Clear
6:07 AM 48.2 °F 48.2 °F 100% 30.20 in 4.0 mi Calm Calm - N/A   Clear
6:21 AM 48.2 °F 48.2 °F 100% 30.20 in 2.0 mi Calm Calm - N/A   Clear
6:22 AM 48.2 °F 48.2 °F 100% 30.20 in 1.5 mi Calm Calm - N/A   Clear
6:23 AM 48.2 °F 48.2 °F 100% 30.20 in 1.2 mi Calm Calm - N/A   Clear
6:24 AM 48.2 °F 48.2 °F 100% 30.20 in 1.0 mi Calm Calm - N/A   Clear
6:28 AM 48.2 °F 48.2 °F 100% 30.20 in 1.0 mi Calm Calm - N/A   Clear
6:30 AM 48.2 °F 48.2 °F 100% 30.20 in 1.2 mi Calm Calm - N/A   Clear
6:32 AM 48.2 °F 48.2 °F 100% 30.20 in 1.8 mi Calm Calm - N/A   Clear
6:33 AM 48.2 °F 48.2 °F 100% 30.20 in 2.0 mi Calm Calm - N/A   Clear
6:39 AM 48.2 °F 48.2 °F 100% 30.20 in 1.8 mi WNW 3.5 mph - N/A   Clear
6:42 AM 48.2 °F 48.2 °F 100% 30.20 in 1.5 mi Calm Calm - N/A   Clear
6:45 AM 50.0 °F 48.2 °F 94% 30.21 in 1.5 mi Calm Calm - N/A   Clear
6:46 AM 50.0 °F 48.2 °F 94% 30.21 in 1.8 mi Calm Calm - N/A   Clear
6:47 AM 50.0 °F 48.2 °F 94% 30.21 in 2.0 mi Calm Calm - N/A   Clear
6:52 AM 50.0 °F 48.2 °F 94% 30.21 in 3.0 mi West 3.5 mph - N/A   Clear
6:54 AM 50.0 °F 48.2 °F 94% 30.21 in 4.0 mi West 3.5 mph - N/A   Clear
6:55 AM 49.3 °F 48.7 °F 98% 30.21 in 4.0 mi Calm Calm - N/A   Clear
7:07 AM 48.2 °F 48.2 °F 100% 30.22 in 2.5 mi Calm Calm - N/A   Clear
7:09 AM 48.2 °F 48.2 °F 100% 30.22 in 2.5 mi Calm Calm - N/A   Clear
7:10 AM 48.2 °F 48.2 °F 100% 30.22 in 2.5 mi Calm Calm - N/A   Clear
7:13 AM 50.0 °F 48.2 °F 94% 30.22 in 3.0 mi Calm Calm - N/A   Clear
7:20 AM 48.2 °F 48.2 °F 100% 30.22 in 1.8 mi Calm Calm - N/A   Clear
7:21 AM 48.2 °F 48.2 °F 100% 30.22 in 1.5 mi Calm Calm - N/A   Clear
7:22 AM 48.2 °F 48.2 °F 100% 30.22 in 1.0 mi Calm Calm - N/A   Clear
7:23 AM 48.2 °F 48.2 °F 100% 30.22 in 0.8 mi Calm Calm - N/A   Clear
7:25 AM 48.2 °F 48.2 °F 100% 30.22 in 0.5 mi Calm Calm - N/A Fog Fog
7:26 AM 48.2 °F 48.2 °F 100% 30.22 in 0.5 mi Calm Calm - N/A Fog Fog
7:27 AM 48.2 °F 48.2 °F 100% 30.22 in 0.5 mi Calm Calm - N/A Fog Fog
7:37 AM 48.2 °F 48.2 °F 100% 30.21 in 10.0 mi NNW 3.5 mph - N/A   Clear
7:55 AM 48.2 °F 47.7 °F 98% 30.23 in 10.0 mi NNW 3.5 mph - N/A   Clear
8:55 AM 54.3 °F 53.8 °F 98% 30.24 in 10.0 mi Calm Calm - N/A   Clear
9:55 AM 63.7 °F 54.0 °F 71% 30.25 in 10.0 mi Calm Calm - N/A   Clear
10:18 AM 66.2 °F 55.4 °F 68% 30.26 in 10.0 mi Calm Calm - N/A   Light Drizzle
10:55 AM 70.3 °F 54.3 °F 57% 30.26 in 10.0 mi Calm Calm - N/A   Light Drizzle
11:55 AM 76.8 °F 54.3 °F 46% 30.25 in 10.0 mi Calm Calm - N/A   Clear
12:55 PM 79.5 °F 51.1 °F 37% 30.22 in 10.0 mi Calm Calm - N/A   Clear
1:55 PM 82.2 °F 51.4 °F 34% 30.19 in 10.0 mi ESE 6.9 mph - N/A   Clear
2:55 PM 83.5 °F 50.5 °F 32% 30.16 in 10.0 mi Variable 3.5 mph - N/A   Clear
3:55 PM 84.9 °F 49.5 °F 29% 30.14 in 10.0 mi Variable 6.9 mph - N/A   Clear
4:55 PM 84.6 °F 49.1 °F 29% 30.13 in 10.0 mi Variable 6.9 mph - N/A   Clear
5:55 PM 84.9 °F 48.4 °F 28% 30.12 in 10.0 mi Variable 3.5 mph - N/A   Clear
6:55 PM 81.5 °F 49.1 °F 32% 30.12 in 10.0 mi NE 6.9 mph - N/A   Clear
7:55 PM 69.1 °F 53.2 °F 57% 30.14 in 10.0 mi Calm Calm - N/A   Clear
8:55 PM 62.8 °F 54.3 °F 74% 30.15 in 10.0 mi Calm Calm - N/A   Clear
9:55 PM 57.4 °F 53.8 °F 88% 30.17 in 10.0 mi Calm Calm - N/A   Clear
10:55 PM 58.6 °F 53.2 °F 82% 30.17 in 10.0 mi Calm Calm - N/A   Clear
11:55 PM 56.7 °F 52.7 °F 87% 30.17 in 10.0 mi Calm Calm - N/A   Clear